Date String (YYYY-MM-DD hh:mm:ss) UTC,Instrument flags,Ambient pressure (hPa),Sample flow (lpm),Bypass flow (lpm),Sample temperature (°C),Ambient temperature (°C),ASC tube jacket temperature (°C),LED temperature (°C),Box temperature (°C),Sample RH (%),Span deviation,Mass concentration (μg/m³),Mass concentration (μg/m³),Mass concentration (μg/m³)
DateTimeUTC,F1_M11,P_M11,Q1_M11,Q2_M11,T1_M11,T2_M11,T3_M11,T4_M11,T5_M11,U1_M11,ZSPAN_M11,X0_M11,X2_M11,X1_M11
2022-01-24 21:00:00,,0821.1,5.01,0.00,21.6,21.0,00.0,30.6,23.3,10.2,0000.0,0009.15,0003.83,0003.35
2022-01-24 21:01:00,,0821.1,5.00,0.00,21.6,21.0,00.0,30.6,23.3,10.4,0000.0,0008.81,0003.81,0003.33
2022-01-24 21:02:00,,0821.1,5.01,0.00,21.6,21.0,00.0,30.6,23.3,10.2,0000.0,0009.32,0003.77,0003.29
2022-01-24 21:03:00,,0821.1,5.00,0.00,21.6,21.1,00.0,30.6,23.3,10.2,0000.0,0009.00,0003.75,0003.24
2022-01-24 21:04:00,,0821.1,4.99,0.00,21.6,21.0,00.0,30.6,23.3,10.2,0000.0,0009.06,0003.68,0003.21
2022-01-24 21:05:00,,0821.1,4.99,0.00,21.5,21.0,00.0,30.6,23.3,10.4,0000.0,0008.96,0003.63,0003.17
2022-01-24 21:06:00,,0821.1,5.01,0.00,21.5,20.9,00.0,30.6,23.2,10.5,0000.0,0008.96,0003.57,0003.13
2022-01-24 21:07:00,,0821.1,5.01,0.00,21.5,20.8,00.0,30.6,23.2,10.6,0000.0,0009.30,0003.53,0003.08
2022-01-24 21:08:00,,0821.1,5.01,0.00,21.5,20.9,00.0,30.6,23.2,10.3,0000.0,0010.00,0003.44,0002.98
2022-01-24 21:09:00,,0821.1,5.00,0.00,21.5,21.0,00.0,30.6,23.2,10.4,0000.0,0010.70,0003.36,0002.91
2022-01-24 21:10:00,,0821.0,5.00,0.00,21.5,21.0,00.0,30.6,23.3,10.4,0000.0,0010.19,0003.31,0002.81
2022-01-24 21:11:00,,0821.0,5.01,0.00,21.5,20.9,00.0,30.6,23.2,10.2,0000.0,0009.77,0003.24,0002.69
2022-01-24 21:12:00,,0821.0,5.00,0.00,21.5,21.0,00.0,30.6,23.2,10.5,0000.0,0009.44,0003.19,0002.60
2022-01-24 21:13:00,,0821.0,5.00,0.00,21.5,21.0,00.0,30.6,23.2,10.3,0000.0,0008.84,0003.14,0002.52
2022-01-24 21:14:00,,0821.0,5.00,0.00,21.5,21.0,00.0,30.6,23.2,10.4,0000.0,0008.87,0003.09,0002.47
2022-01-24 21:15:00,,0821.0,5.01,0.00,21.5,21.1,00.0,30.6,23.3,10.5,0000.0,0009.17,0003.07,0002.41
2022-01-24 21:16:00,,0821.0,5.00,0.00,21.6,21.1,00.0,30.6,23.3,09.9,0000.0,0009.14,0003.01,0002.35
2022-01-24 21:17:00,,0821.0,4.99,0.00,21.6,21.1,00.0,30.6,23.3,09.8,0000.0,0009.14,0002.97,0002.29
2022-01-24 21:18:00,,0821.0,5.00,0.00,21.6,21.1,00.0,30.6,23.3,09.7,0000.0,0008.92,0002.93,0002.21
2022-01-24 21:19:00,,0821.0,5.00,0.00,21.6,21.2,00.0,30.6,23.3,10.0,0000.0,0008.49,0002.94,0002.17
2022-01-24 21:20:00,,0821.0,5.01,0.00,21.6,21.2,00.0,30.6,23.3,09.9,0000.0,0008.08,0002.86,0002.13
2022-01-24 21:21:00,,0821.0,4.99,0.00,21.6,21.2,00.0,30.6,23.3,09.7,0000.0,0007.79,0002.84,0002.10
2022-01-24 21:22:00,,0821.0,4.99,0.00,21.6,21.2,00.0,30.6,23.4,09.6,0000.0,0007.84,0002.85,0002.07
2022-01-24 21:23:00,,0821.0,5.00,0.00,21.6,21.2,00.0,30.6,23.4,09.5,0000.0,0007.84,0002.81,0002.06
2022-01-24 21:24:00,,0821.0,5.00,0.00,21.6,21.1,00.0,30.6,23.4,09.9,0000.0,0008.07,0002.85,0002.05
2022-01-24 21:25:00,,0821.0,5.00,0.00,21.6,21.2,00.0,30.6,23.4,09.9,0000.0,0007.39,0002.80,0002.03
2022-01-24 21:26:00,,0821.0,5.00,0.00,21.6,21.2,00.0,30.6,23.4,09.8,0000.0,0007.49,0002.78,0002.02
2022-01-24 21:27:00,,0821.0,4.99,0.00,21.6,21.2,00.0,30.6,23.4,10.1,0000.0,0007.75,0002.77,0002.01
2022-01-24 21:28:00,,0821.0,5.00,0.00,21.7,21.2,00.0,30.6,23.4,10.0,0000.0,0007.76,0002.73,0002.01
2022-01-24 21:29:00,,0821.0,5.00,0.00,21.7,21.3,00.0,30.7,23.5,10.1,0000.0,0007.84,0002.70,0002.02
2022-01-24 21:30:00,,0821.0,5.00,0.00,21.7,21.3,00.0,30.7,23.5,09.5,0000.0,0007.39,0002.70,0002.02
2022-01-24 21:31:00,,0820.9,5.00,0.00,21.7,21.3,00.0,30.7,23.5,09.5,0000.0,0006.83,0002.75,0002.03
2022-01-24 21:32:00,,0821.0,5.00,0.00,21.7,21.3,00.0,30.7,23.5,09.8,0000.0,0006.81,0002.75,0002.03
2022-01-24 21:33:00,,0821.0,5.00,0.00,21.7,21.3,00.0,30.7,23.5,09.9,0000.0,0007.52,0002.74,0002.04
2022-01-24 21:34:00,,0820.9,5.00,0.00,21.7,21.2,00.0,30.7,23.5,10.1,0000.0,0007.72,0002.76,0002.04
2022-01-24 21:35:00,,0821.0,5.00,0.00,21.7,21.2,00.0,30.7,23.4,10.1,0000.0,0007.55,0002.74,0002.04
2022-01-24 21:36:00,,0821.0,5.00,0.00,21.7,21.2,00.0,30.7,23.4,10.2,0000.0,0007.69,0002.78,0002.04
2022-01-24 21:37:00,,0820.9,5.00,0.00,21.7,21.2,00.0,30.7,23.4,09.7,0000.0,0007.10,0002.77,0002.03
2022-01-24 21:38:00,,0820.9,4.99,0.00,21.7,21.3,00.0,30.7,23.4,09.8,0000.0,0006.49,0002.74,0002.04
2022-01-24 21:39:00,,0820.8,5.00,0.00,21.7,21.2,00.0,30.7,23.4,09.4,0000.0,0006.70,0002.79,0002.04
2022-01-24 21:40:00,,0820.9,5.00,0.00,21.7,21.2,00.0,30.7,23.4,09.5,0000.0,0006.89,0002.83,0002.04
2022-01-24 21:41:00,,0820.9,5.00,0.00,21.7,21.1,00.0,30.7,23.4,09.8,0000.0,0006.99,0002.77,0002.04
2022-01-24 21:42:00,,0820.9,5.00,0.00,21.7,21.1,00.0,30.7,23.3,09.8,0000.0,0007.30,0002.78,0002.03
2022-01-24 21:43:00,,0820.9,5.00,0.00,21.6,21.0,00.0,30.7,23.3,09.8,0000.0,0007.58,0002.80,0002.03
2022-01-24 21:44:00,,0820.9,5.00,0.00,21.6,21.0,00.0,30.7,23.3,09.8,0000.0,0007.24,0002.76,0002.03
2022-01-24 21:45:00,,0820.9,5.00,0.00,21.6,21.0,00.0,30.7,23.3,09.5,0000.0,0007.61,0002.76,0002.04
2022-01-24 21:46:00,,0820.9,5.01,0.00,21.6,21.0,00.0,30.7,23.3,09.5,0000.0,0007.90,0002.76,0002.03
2022-01-24 21:47:00,,0820.9,5.01,0.00,21.6,20.9,00.0,30.7,23.2,09.5,0000.0,0007.76,0002.74,0002.04
2022-01-24 21:48:00,,0820.9,5.00,0.00,21.6,20.9,00.0,30.6,23.2,09.4,0000.0,0008.12,0002.73,0002.05
2022-01-24 21:49:00,,0820.9,4.99,0.00,21.5,20.9,00.0,30.6,23.2,09.6,0000.0,0008.28,0002.74,0002.05
2022-01-24 21:50:00,,0820.9,5.00,0.00,21.5,21.0,00.0,30.6,23.2,09.7,0000.0,0008.26,0002.76,0002.05
2022-01-24 21:51:00,,0820.9,5.00,0.00,21.5,21.0,00.0,30.6,23.3,09.8,0000.0,0008.23,0002.76,0002.06
2022-01-24 21:52:00,,0820.9,5.00,0.00,21.6,21.0,00.0,30.6,23.3,10.0,0000.0,0008.39,0002.81,0002.08
2022-01-24 21:53:00,,0820.9,4.99,0.00,21.6,21.1,00.0,30.6,23.3,10.2,0000.0,0008.17,0002.78,0002.09
2022-01-24 21:54:00,,0820.9,5.00,0.00,21.6,21.1,00.0,30.6,23.3,10.2,0000.0,0008.29,0002.76,0002.10
2022-01-24 21:55:00,,0820.9,5.00,0.00,21.6,21.1,00.0,30.6,23.3,10.2,0000.0,0008.76,0002.82,0002.10
2022-01-24 21:56:00,,0820.8,5.00,0.00,21.6,21.1,00.0,30.6,23.3,09.9,0000.0,0009.25,0002.82,0002.10
2022-01-24 21:57:00,,0820.8,5.00,0.00,21.6,21.1,00.0,30.6,23.3,09.7,0000.0,0008.95,0002.89,0002.09
2022-01-24 21:58:00,,0820.9,5.00,0.00,21.6,21.1,00.0,30.6,23.3,09.7,0000.0,0008.88,0002.88,0002.11
2022-01-24 21:59:00,,0820.9,5.00,0.00,21.6,21.1,00.0,30.6,23.3,09.7,0000.0,0008.48,0002.85,0002.11
